Regional Weather Roundup
Issued by NWS

Home | Current Version | Previous Version | Graphics & Text | Print | Product List | Glossary Off
Versions: 1 2 3 4 5 6 7 8 9 10 11 12 13 14 15 16 17 18 19 20 21 22 23 24 25 26 27 28 29 30 31 32 33 34 35 36 37 38 39 40 41 42 43 44 45 46 47 48 49 50

000
ASUS43 KDMX 051007
RWRIA

WEATHER ROUNDUP FOR IOWA
NATIONAL WEATHER SERVICE DES MOINES IA
500 AM CDT SUN JUL 05 2015

NOTE: "FAIR" INDICATES FEW OR NO CLOUDS BELOW 12,000 FEET WITH NO
SIGNIFICANT WEATHER AND/OR OBSTRUCTIONS TO VISIBILITY.

* - THESE STATIONS ARE NOT NWS STATIONS...THUS NOT UNDER NWS
QUALITY CONTROL.  THEY ALSO DO NOT REPORT WEATHER SUCH
AS PRECIPITATION OR FOG.

IAZ001>003-012>014-020>022-031>034-043>046-051100-
   NORTHWEST IOWA

CITY           SKY/WX    TMP DP  RH WIND       PRES   REMARKS
CARROLL *      CLOUDY    61  61 100 S8        29.93F
CHEROKEE *     CLOUDY    64  63  94 S8        29.91R
DENISON *      CLEAR     66  61  82 S12G25    29.91F
LE MARS *      CLEAR     68  63  83 S9        29.89R
ORANGE CITY *  CLEAR     64  61  88 S7        29.90R
SHELDON *      CLEAR     66  66 100 S12       29.89R
SIOUX CITY     PTCLDY    68  61  78 SE9       29.88F
SPENCER        MOCLDY    64  58  80 S9        29.92R
STORM LAKE *   CLEAR     63  61  94 S9        29.93S
$$

IAZ055>058-069>071-079>083-090>094-051100-
   SOUTHWEST IOWA

CITY           SKY/WX    TMP DP  RH WIND       PRES   REMARKS
ATLANTIC *     CLEAR     66  63  88 S6        29.95S
AUDUBON *      CLEAR     63  59  88 S3        29.95F
CLARINDA *     CLEAR     63  63 100 S3        29.97S
COUNCIL BLFS * CLEAR     64  63  94 SE9       29.94S
CRESTON *      CLEAR     66  63  88 S9        29.98S
HARLAN  *      CLEAR     64  64 100 S8        29.97F
LAMONI         CLEAR     65  62  90 S8        29.99S
RED OAK *      CLEAR     64  63  94 S5        29.95S
SHENANDOAH *   CLEAR     66  64  94 SE5       29.95S
$$

IAZ047>049-059>061-072>074-084-051100-
   CENTRAL IOWA

CITY           SKY/WX    TMP DP  RH WIND       PRES   REMARKS
AMES           CLEAR     60  59  96 S6        29.96F
ANKENY *       CLEAR     63  61  94 S3        29.97F
CHARITON *     CLOUDY    63  61  94 SE8       29.99F
DES MOINES     CLEAR     65  59  81 S8        29.97F
GRINNELL*      CLEAR     63  59  88 S6        30.01F
KNOXVILLE *    PTCLDY    63  59  88 SE5       29.98F
MARSHALLTOWN   CLEAR     63  60  90 SE8       29.98F
PELLA *        CLEAR     63  63 100 SE6       30.01S
PERRY *          N/A     59  59 100 S5        29.96S
$$

IAZ004>006-015-016-023>025-035-036-051100-
   NORTH CENTRAL IOWA

CITY           SKY/WX    TMP DP  RH WIND       PRES   REMARKS
ALGONA *       PTCLDY    64  59  82 S10       29.94S
CLARION *      CLEAR     63  59  88 S9        29.96R
ESTHERVILLE      N/A     60  58  92 S6        29.93R
FORT DODGE *   CLEAR     64  57  77 S6        29.95F
MASON CITY     CLEAR     59  57  93 S8        29.98S
FOREST CITY *  CLEAR     59  59 100 SE6       29.96R
IOWA FALLS *     N/A     61  59  94 SE6       29.98F
$$

IAZ007>011-017>019-026>030-037>042-050>054-066-051100-
   NORTHEAST IOWA

CITY           SKY/WX    TMP DP  RH WIND       PRES   REMARKS
CEDAR RAPIDS   CLEAR     62  61  96 SE5       30.02R
CHARLES CITY * CLEAR     61  61 100 SE6       29.99F
CLINTON *      CLEAR     61  57  88 SE3       30.07S
DECORAH *        N/A    N/A N/A N/A MISG        N/A
DUBUQUE        CLEAR     59  57  93 CALM      30.05R
MONTICELLO *   CLEAR     61  61 100 SE3       30.03S
OELWEIN *        N/A     61  59  94 S6        30.02S
WATERLOO       CLEAR     63  60  90 S7        29.98F
$$

IAZ064-065-067-068-078-051100-
   EAST CENTRAL IOWA

CITY           SKY/WX    TMP DP  RH WIND       PRES   REMARKS
DAVENPORT      CLEAR     61  58  90 S6        30.05R FOG
IOWA CITY      CLEAR     62  60  93 CALM      30.04R
MT. PLEASANT * CLEAR     64  61  88 SE3       30.03S FOG
MUSCATINE *    CLEAR     59  59 100 CALM      30.03S
QUAD CITIES    CLEAR     63  58  83 CALM      30.04R
$$

IAZ062-063-075>077-085>089-095>099-051100-
   SOUTHEAST IOWA

CITY           SKY/WX    TMP DP  RH WIND       PRES   REMARKS
BURLINGTON     CLEAR     63  63 100 CALM      30.03S FOG
FAIRFIELD *      N/A     64  61  88 S6        30.03R
FORT MADISON * CLEAR     66  63  88 S6        30.04S
KEOKUK *       CLEAR     66  63  88 S3        30.02S
OSKALOOSA *      N/A     59  59 100 SE3       30.01F FOG
CENTERVILLE *  CLEAR     61  59  94 SE7       30.03S
OTTUMWA        CLEAR     63  62  97 S7        30.00S
WASHINGTON *   CLEAR     61  61 100 S5        30.04R FOG
$$

ABBREVIATIONS USED IN REMARKS
   TC - TEMPERATURES IN CELSIUS
  WCI - WIND CHILL INDEX
   HX - HEAT INDEX
  VSB - VISIBILITY
$$




USA.gov is the U.S. government's official web portal to all federal, state and local government web resources and services.